Погода в Сен-Марке

Гаити     19°06′21″N   72°41′49″W
темп.,
°C
ветер,
м/с
пор.,
м/с
влажн.,
%
обл.,
%
осадки,
мм/ч
давл.,
гПа
погр.,
м
20 апреля, вт
вт2023:00+26в23685 0.0 1017170
02:00+25ююв33690 0.0 1016259
05:00+25юв22684 0.0 1016198
08:00+26юв226214 0.0 1018242
11:00+28ююз33555 0.0 1018641
14:00+28зсз54525 0.0 1016469
17:00+28ссз445410 0.0 1014451
20:00+28ссз3462100 0.0 1016230
21 апреля, ср
ср2123:00+27сз1267100 0.2 1017213
02:00+26ю337328 0.2 1016382
05:00+25ююв2270100 0.0 1015335
08:00+26в12647 0.0 1017350
11:00+26зюз3265100 0.0 1018708
14:00+26зсз33677 0.0 1016492
17:00+28сз44627 0.0 1015579
20:00+26сз347145 0.1 1016357
22 апреля, чт
чт2223:00+26с1168100 0.8 1017163
02:00+26ю117014 0.8 1015300
05:00+25ююв3375100 0.0 1014495
08:00+25ююв3370100 0.0 1017467
11:00+26ююз436741 0.0 1017671
14:00+26з33633 0.0 1015457
17:00+27сз55714 0.1 1014633
20:00+26сз33765 1.2 1015174
23 апреля, пт
пт2323:00+26св127130 0.5 1016202
02:00+25вюв23720 0.6 1015214
05:00+25юв33765 0.0 1014412
08:00+25ююв22690 0.0 1016388
11:00+26зюз31659 0.0 1017638
14:00+27з44622 0.0 1015523
17:00+27сз546849 0.1 1013494
20:00+26ссз227126 1.4 101484
24 апреля, сб
сб2423:00+26вюв33719 1.3 1016199
02:00+25ююв33744 1.4 1014264
05:00+25вюв12740 0.0 1014310
08:00+25всв11712 0.0 1016442
11:00+27зюз327024 0.2 1016577
14:00+27з32665 0.9 1014534
17:00+27сз557129 1.6 1013326
20:00+27ссз237167 4.4 1014144